Tracking 19847 objects as of 16-Sep-2019
HD Live streaming from Space Station
objects crossing your sky now

FENGYUN 1C DEB

Track FENGYUN 1C DEB now!
10-day predictions


NORAD ID: 32454
Int'l Code: 1999-025DBS
Perigee: 656.2 km
Apogee: 1,079.0 km
Inclination: 98.5 °
Period: 102.2 minutes
Semi major axis: 7238 km
RCS: 0.009 m2 (small)
Launch date: May 10, 1999
Source: People's Republic of China (PRC)
Launch site: Taiyaun Space Center, China (TSC)

Note: This is SATELLITE DEBRIS
aabbcc
Your satellite tracking list
Your tracking list is empty




NASA's NSSDC Master Catalog

Two Line Element Set (TLE):
1 32454U 99025DBS 19256.43581462 +.00001283 +00000-0 +51008-3 0  9990
2 32454 098.5184 334.1302 0292005 226.4814 131.1758 14.09685443252487
Source of the keplerian elements: AFSPC